Anzahl Datensätze: 286
min. Temperatur: 1.5 °C
max. Temperatur: 6.3 °C
max. Windgeschwindigkeit: 25.9 km/h
Niederschlagsumme: 0.6 mm
| Datum |
Zeit |
Temp °C |
Feuchte % |
Taupunkt °C |
Luftdruck hPa |
Wind km/h |
Windrichtung |
Strahlung w/m² |
Niederschlag mm |
|---|---|---|---|---|---|---|---|---|---|
| 15.12.2024 | 00:01 | 1.5 | 93 | 0.5 | 1026.0 | 7.9 | WSW | 0 | 0.0 |
| 15.12.2024 | 00:06 | 1.6 | 93 | 0.6 | 1026.0 | 1.4 | W | 0 | 0.0 |
| 15.12.2024 | 00:11 | 1.6 | 93 | 0.6 | 1026.0 | 3.2 | WSW | 0 | 0.0 |
| 15.12.2024 | 00:16 | 1.6 | 93 | 0.6 | 1025.9 | 4.7 | SW | 0 | 0.0 |
| 15.12.2024 | 00:21 | 1.6 | 93 | 0.6 | 1026.1 | 6.5 | WSW | 0 | 0.0 |
| 15.12.2024 | 00:26 | 1.7 | 93 | 0.7 | 1026.1 | 7.9 | WSW | 0 | 0.0 |
| 15.12.2024 | 00:31 | 1.7 | 93 | 0.7 | 1026.1 | 4.7 | SW | 0 | 0.0 |
| 15.12.2024 | 00:36 | 1.7 | 93 | 0.7 | 1026.1 | 4.7 | SSW | 0 | 0.0 |
| 15.12.2024 | 00:41 | 1.7 | 93 | 0.7 | 1026.0 | 6.5 | SSW | 0 | 0.0 |
| 15.12.2024 | 00:46 | 1.7 | 93 | 0.7 | 1026.0 | 1.4 | W | 0 | 0.0 |
| 15.12.2024 | 00:51 | 1.7 | 93 | 0.7 | 1026.1 | 4.7 | SW | 0 | 0.0 |
| 15.12.2024 | 00:56 | 1.7 | 93 | 0.7 | 1026.2 | 6.5 | WSW | 0 | 0.0 |
| 15.12.2024 | 01:01 | 1.7 | 93 | 0.7 | 1026.4 | 4.7 | SW | 0 | 0.0 |
| 15.12.2024 | 01:06 | 1.7 | 93 | 0.7 | 1026.3 | 6.5 | WSW | 0 | 0.0 |
| 15.12.2024 | 01:11 | 1.7 | 93 | 0.7 | 1026.4 | 4.7 | SW | 0 | 0.0 |
| 15.12.2024 | 01:17 | 1.7 | 93 | 0.7 | 1026.4 | 6.5 | SW | 0 | 0.0 |
| 15.12.2024 | 01:22 | 1.8 | 93 | 0.8 | 1026.4 | 9.7 | WSW | 0 | 0.0 |
| 15.12.2024 | 01:27 | 1.8 | 93 | 0.8 | 1026.5 | 3.2 | SSW | 0 | 0.0 |
| 15.12.2024 | 01:32 | 1.8 | 93 | 0.8 | 1026.6 | 3.2 | SSW | 0 | 0.0 |
| 15.12.2024 | 01:37 | 1.8 | 93 | 0.8 | 1026.7 | 3.2 | SW | 0 | 0.0 |
| 15.12.2024 | 01:42 | 1.8 | 93 | 0.8 | 1026.7 | 4.7 | SW | 0 | 0.0 |
| 15.12.2024 | 01:47 | 1.8 | 93 | 0.8 | 1026.7 | 3.2 | SW | 0 | 0.0 |
| 15.12.2024 | 01:52 | 1.8 | 93 | 0.8 | 1026.7 | 3.2 | SW | 0 | 0.0 |
| 15.12.2024 | 01:57 | 1.8 | 93 | 0.8 | 1026.7 | 4.7 | SSW | 0 | 0.0 |
| 15.12.2024 | 02:02 | 1.8 | 93 | 0.8 | 1026.6 | 4.7 | SSW | 0 | 0.0 |
| 15.12.2024 | 02:07 | 1.8 | 93 | 0.8 | 1026.7 | 6.5 | SSW | 0 | 0.0 |
| 15.12.2024 | 02:12 | 1.8 | 93 | 0.8 | 1026.6 | 3.2 | SSW | 0 | 0.0 |
| 15.12.2024 | 02:17 | 1.8 | 93 | 0.8 | 1026.7 | 3.2 | SSW | 0 | 0.0 |
| 15.12.2024 | 02:22 | 1.8 | 93 | 0.8 | 1026.6 | 3.2 | SW | 0 | 0.0 |
| 15.12.2024 | 02:27 | 1.8 | 93 | 0.8 | 1026.7 | 3.2 | SSW | 0 | 0.0 |
| 15.12.2024 | 02:32 | 1.8 | 93 | 0.8 | 1026.6 | 6.5 | SSW | 0 | 0.0 |
| 15.12.2024 | 02:37 | 1.8 | 93 | 0.8 | 1026.6 | 13.0 | SW | 0 | 0.0 |
| 15.12.2024 | 02:42 | 1.8 | 93 | 0.8 | 1026.6 | 6.5 | SSW | 0 | 0.0 |
| 15.12.2024 | 02:47 | 1.8 | 93 | 0.8 | 1026.7 | 6.5 | SW | 0 | 0.0 |
| 15.12.2024 | 02:52 | 1.8 | 93 | 0.8 | 1026.8 | 3.2 | WSW | 0 | 0.0 |
| 15.12.2024 | 02:57 | 1.8 | 93 | 0.8 | 1027.0 | 6.5 | SSW | 0 | 0.0 |
| 15.12.2024 | 03:02 | 1.8 | 93 | 0.8 | 1027.0 | 1.4 | SW | 0 | 0.0 |
| 15.12.2024 | 03:07 | 1.8 | 93 | 0.8 | 1026.9 | 6.5 | SW | 0 | 0.0 |
| 15.12.2024 | 03:12 | 1.9 | 93 | 0.9 | 1026.8 | 4.7 | S | 0 | 0.0 |
| 15.12.2024 | 03:17 | 1.9 | 93 | 0.9 | 1026.8 | 11.2 | SSW | 0 | 0.0 |
| 15.12.2024 | 03:22 | 1.9 | 93 | 0.9 | 1026.7 | 6.5 | SSW | 0 | 0.0 |
| 15.12.2024 | 03:27 | 1.9 | 93 | 0.9 | 1026.8 | 6.5 | SSW | 0 | 0.2 |
| 15.12.2024 | 03:32 | 1.9 | 93 | 0.9 | 1026.9 | 7.9 | SSW | 0 | 0.2 |
| 15.12.2024 | 03:37 | 2.0 | 93 | 1.0 | 1026.9 | 13.0 | SW | 0 | 0.2 |
| 15.12.2024 | 03:42 | 2.1 | 93 | 1.1 | 1026.9 | 4.7 | SSW | 0 | 0.2 |
| 15.12.2024 | 03:47 | 2.1 | 93 | 1.1 | 1027.1 | 3.2 | WSW | 0 | 0.2 |
| 15.12.2024 | 03:52 | 2.1 | 93 | 1.1 | 1027.1 | 3.2 | SSO | 0 | 0.2 |
| 15.12.2024 | 03:57 | 2.1 | 93 | 1.1 | 1027.1 | 4.7 | SSW | 0 | 0.2 |
| 15.12.2024 | 04:02 | 2.1 | 93 | 1.1 | 1027.3 | 1.4 | SW | 0 | 0.2 |
| 15.12.2024 | 04:08 | 2.1 | 93 | 1.1 | 1027.2 | 7.9 | SSW | 0 | 0.2 |
| 15.12.2024 | 04:13 | 2.1 | 93 | 1.1 | 1027.2 | 3.2 | SSW | 0 | 0.2 |
| 15.12.2024 | 04:18 | 2.1 | 93 | 1.1 | 1027.2 | 3.2 | SW | 0 | 0.2 |
| 15.12.2024 | 04:23 | 2.1 | 93 | 1.1 | 1027.2 | 3.2 | SW | 0 | 0.2 |
| 15.12.2024 | 04:28 | 2.1 | 93 | 1.1 | 1027.3 | 4.7 | SSW | 0 | 0.2 |
| 15.12.2024 | 04:33 | 2.2 | 93 | 1.2 | 1027.3 | 6.5 | SW | 0 | 0.2 |
| 15.12.2024 | 04:38 | 2.2 | 93 | 1.2 | 1027.3 | 6.5 | WSW | 0 | 0.2 |
| 15.12.2024 | 04:43 | 2.2 | 93 | 1.2 | 1027.4 | 4.7 | SW | 0 | 0.2 |
| 15.12.2024 | 04:48 | 2.2 | 93 | 1.2 | 1027.4 | 3.2 | SSW | 0 | 0.2 |
| 15.12.2024 | 04:53 | 2.3 | 93 | 1.3 | 1027.5 | 7.9 | SSW | 0 | 0.2 |
| 15.12.2024 | 04:58 | 2.3 | 93 | 1.3 | 1027.5 | 6.5 | SSW | 0 | 0.2 |
| 15.12.2024 | 05:03 | 2.3 | 93 | 1.3 | 1027.5 | 6.5 | SW | 0 | 0.2 |
| 15.12.2024 | 05:08 | 2.3 | 93 | 1.3 | 1027.5 | 9.7 | SW | 0 | 0.2 |
| 15.12.2024 | 05:13 | 2.3 | 93 | 1.3 | 1027.6 | 7.9 | SSW | 0 | 0.2 |
| 15.12.2024 | 05:18 | 2.3 | 93 | 1.3 | 1027.6 | 4.7 | SW | 0 | 0.2 |
| 15.12.2024 | 05:23 | 2.4 | 93 | 1.4 | 1027.6 | 3.2 | SSW | 0 | 0.2 |
| 15.12.2024 | 05:28 | 2.4 | 93 | 1.4 | 1027.6 | 4.7 | SW | 0 | 0.2 |
| 15.12.2024 | 05:33 | 2.4 | 93 | 1.4 | 1027.7 | 9.7 | SW | 0 | 0.2 |
| 15.12.2024 | 05:38 | 2.4 | 93 | 1.4 | 1027.7 | 6.5 | SW | 0 | 0.2 |
| 15.12.2024 | 05:43 | 2.4 | 93 | 1.4 | 1027.7 | 4.7 | SSW | 0 | 0.2 |
| 15.12.2024 | 05:48 | 2.4 | 93 | 1.4 | 1027.9 | 4.7 | SSW | 0 | 0.2 |
| 15.12.2024 | 05:53 | 2.4 | 93 | 1.4 | 1028.0 | 6.5 | SSW | 0 | 0.2 |
| 15.12.2024 | 05:58 | 2.5 | 94 | 1.6 | 1028.0 | 4.7 | SW | 0 | 0.2 |
| 15.12.2024 | 06:03 | 2.5 | 94 | 1.6 | 1028.2 | 3.2 | SW | 0 | 0.2 |
| 15.12.2024 | 06:08 | 2.5 | 94 | 1.6 | 1028.3 | 4.7 | SSW | 0 | 0.2 |
| 15.12.2024 | 06:13 | 2.6 | 94 | 1.7 | 1028.4 | 4.7 | SW | 0 | 0.2 |
| 15.12.2024 | 06:18 | 2.6 | 94 | 1.7 | 1028.4 | 4.7 | SW | 0 | 0.2 |
| 15.12.2024 | 06:23 | 2.6 | 94 | 1.7 | 1028.4 | 4.7 | SSW | 0 | 0.2 |
| 15.12.2024 | 06:28 | 2.6 | 94 | 1.7 | 1028.5 | 11.2 | SSW | 0 | 0.2 |
| 15.12.2024 | 06:33 | 2.7 | 93 | 1.7 | 1028.6 | 3.2 | SSW | 0 | 0.2 |
| 15.12.2024 | 06:38 | 2.7 | 93 | 1.7 | 1028.6 | 3.2 | SSW | 0 | 0.2 |
| 15.12.2024 | 06:43 | 2.7 | 93 | 1.7 | 1028.5 | 6.5 | S | 0 | 0.2 |
| 15.12.2024 | 06:48 | 2.7 | 93 | 1.7 | 1028.4 | 7.9 | SSW | 0 | 0.2 |
| 15.12.2024 | 06:53 | 2.7 | 93 | 1.7 | 1028.5 | 1.4 | SW | 0 | 0.2 |
| 15.12.2024 | 06:59 | 2.8 | 93 | 1.8 | 1028.5 | 4.7 | S | 0 | 0.2 |
| 15.12.2024 | 07:04 | 2.8 | 93 | 1.8 | 1028.6 | 3.2 | SSW | 0 | 0.2 |
| 15.12.2024 | 07:09 | 2.8 | 93 | 1.8 | 1028.7 | 4.7 | S | 0 | 0.2 |
| 15.12.2024 | 07:14 | 2.8 | 93 | 1.8 | 1028.6 | 4.7 | S | 0 | 0.2 |
| 15.12.2024 | 07:19 | 2.8 | 93 | 1.8 | 1028.6 | 4.7 | SSW | 0 | 0.2 |
| 15.12.2024 | 07:24 | 2.8 | 93 | 1.8 | 1028.6 | 4.7 | SSW | 0 | 0.2 |
| 15.12.2024 | 07:29 | 2.8 | 93 | 1.8 | 1028.5 | 4.7 | SSW | 0 | 0.2 |
| 15.12.2024 | 07:34 | 2.8 | 94 | 1.9 | 1028.5 | 6.5 | S | 0 | 0.2 |
| 15.12.2024 | 07:39 | 2.8 | 94 | 1.9 | 1028.6 | 6.5 | SW | 0 | 0.2 |
| 15.12.2024 | 07:44 | 2.8 | 94 | 1.9 | 1028.6 | 3.2 | SW | 0 | 0.2 |
| 15.12.2024 | 07:49 | 2.9 | 94 | 2.0 | 1028.8 | 13.0 | SSW | 0 | 0.2 |
| 15.12.2024 | 07:54 | 2.9 | 94 | 2.0 | 1028.8 | 1.4 | S | 0 | 0.2 |
| 15.12.2024 | 07:59 | 2.9 | 94 | 2.0 | 1028.9 | 3.2 | SSW | 0 | 0.2 |
| 15.12.2024 | 08:04 | 2.9 | 94 | 2.0 | 1029.1 | 4.7 | SSW | 0 | 0.2 |
| 15.12.2024 | 08:09 | 2.9 | 94 | 2.0 | 1028.9 | 4.7 | SO | 0 | 0.2 |
| 15.12.2024 | 08:14 | 2.9 | 94 | 2.0 | 1028.8 | 6.5 | S | 0 | 0.2 |
| 15.12.2024 | 08:19 | 3.0 | 94 | 2.1 | 1028.9 | 3.2 | S | 0 | 0.2 |
| 15.12.2024 | 08:24 | 3.0 | 93 | 2.0 | 1028.9 | 3.2 | S | 0 | 0.2 |
| 15.12.2024 | 08:29 | 3.1 | 93 | 2.1 | 1029.1 | 4.7 | SSW | 0 | 0.2 |
| 15.12.2024 | 08:34 | 3.1 | 93 | 2.1 | 1029.2 | 7.9 | SSW | 0 | 0.2 |
| 15.12.2024 | 08:39 | 3.1 | 93 | 2.1 | 1029.2 | 6.5 | SW | 0 | 0.2 |
| 15.12.2024 | 08:44 | 3.2 | 93 | 2.2 | 1029.4 | 7.9 | SSW | 0 | 0.2 |
| 15.12.2024 | 08:49 | 3.2 | 93 | 2.2 | 1029.4 | 9.7 | SSW | 0 | 0.2 |
| 15.12.2024 | 08:54 | 3.2 | 94 | 2.3 | 1029.4 | 9.7 | SW | 7 | 0.2 |
| 15.12.2024 | 08:59 | 3.3 | 94 | 2.4 | 1029.5 | 6.5 | SW | 7 | 0.2 |
| 15.12.2024 | 09:04 | 3.3 | 94 | 2.4 | 1029.6 | 9.7 | S | 11 | 0.2 |
| 15.12.2024 | 09:09 | 3.3 | 94 | 2.4 | 1029.7 | 13.0 | SW | 11 | 0.2 |
| 15.12.2024 | 09:14 | 3.4 | 94 | 2.5 | 1029.8 | 7.9 | SSW | 14 | 0.2 |
| 15.12.2024 | 09:19 | 3.4 | 94 | 2.5 | 1029.9 | 7.9 | WSW | 11 | 0.2 |
| 15.12.2024 | 09:24 | 3.4 | 94 | 2.5 | 1030.0 | 3.2 | SSW | 11 | 0.2 |
| 15.12.2024 | 09:29 | 3.4 | 93 | 2.4 | 1030.1 | 7.9 | SW | 16 | 0.2 |
| 15.12.2024 | 09:34 | 3.5 | 93 | 2.5 | 1030.2 | 1.4 | S | 23 | 0.2 |
| 15.12.2024 | 09:39 | 3.5 | 93 | 2.5 | 1030.3 | 11.2 | SW | 21 | 0.2 |
| 15.12.2024 | 09:44 | 3.5 | 93 | 2.5 | 1030.4 | 3.2 | S | 23 | 0.2 |
| 15.12.2024 | 09:50 | 3.6 | 93 | 2.6 | 1030.4 | 6.5 | SW | 19 | 0.2 |
| 15.12.2024 | 09:55 | 3.6 | 93 | 2.6 | 1030.5 | 4.7 | SW | 19 | 0.2 |
| 15.12.2024 | 10:00 | 3.6 | 94 | 2.7 | 1030.6 | 3.2 | S | 18 | 0.2 |
| 15.12.2024 | 10:05 | 3.6 | 94 | 2.7 | 1030.6 | 7.9 | S | 18 | 0.2 |
| 15.12.2024 | 10:10 | 3.6 | 94 | 2.7 | 1030.7 | 6.5 | SSW | 19 | 0.2 |
| 15.12.2024 | 10:15 | 3.6 | 94 | 2.7 | 1030.7 | 9.7 | SSW | 26 | 0.2 |
| 15.12.2024 | 10:20 | 3.6 | 94 | 2.7 | 1030.7 | 3.2 | SSW | 21 | 0.2 |
| 15.12.2024 | 10:25 | 3.6 | 94 | 2.7 | 1030.7 | 13.0 | W | 26 | 0.2 |
| 15.12.2024 | 10:30 | 3.7 | 94 | 2.8 | 1030.8 | 4.7 | SSW | 23 | 0.2 |
| 15.12.2024 | 10:35 | 3.7 | 94 | 2.8 | 1030.9 | 1.4 | S | 19 | 0.2 |
| 15.12.2024 | 10:40 | 3.7 | 94 | 2.8 | 1031.1 | 4.7 | SSW | 23 | 0.2 |
| 15.12.2024 | 10:45 | 3.7 | 94 | 2.8 | 1031.2 | 6.5 | SW | 25 | 0.2 |
| 15.12.2024 | 10:50 | 3.7 | 94 | 2.8 | 1031.2 | 6.5 | OSO | 19 | 0.2 |
| 15.12.2024 | 10:55 | 3.7 | 94 | 2.8 | 1031.3 | 4.7 | SW | 30 | 0.2 |
| 15.12.2024 | 11:00 | 3.7 | 93 | 2.7 | 1031.3 | 7.9 | SW | 28 | 0.2 |
| 15.12.2024 | 11:05 | 3.8 | 93 | 2.8 | 1031.4 | 9.7 | SSW | 28 | 0.2 |
| 15.12.2024 | 11:10 | 3.8 | 93 | 2.8 | 1031.4 | 4.7 | SSW | 26 | 0.2 |
| 15.12.2024 | 11:15 | 3.8 | 93 | 2.8 | 1031.4 | 4.7 | WNW | 33 | 0.2 |
| 15.12.2024 | 11:20 | 3.8 | 93 | 2.8 | 1031.5 | 4.7 | SSW | 35 | 0.2 |
| 15.12.2024 | 11:25 | 3.8 | 93 | 2.8 | 1031.5 | 9.7 | SW | 42 | 0.2 |
| 15.12.2024 | 11:30 | 3.9 | 93 | 2.9 | 1031.5 | 6.5 | SW | 37 | 0.2 |
| 15.12.2024 | 11:35 | 3.9 | 93 | 2.9 | 1031.5 | 7.9 | SW | 32 | 0.2 |
| 15.12.2024 | 11:40 | 3.9 | 93 | 2.9 | 1031.5 | 7.9 | SSW | 40 | 0.2 |
| 15.12.2024 | 11:45 | 3.9 | 94 | 3.0 | 1031.5 | 14.4 | SSW | 32 | 0.2 |
| 15.12.2024 | 11:50 | 3.9 | 94 | 3.0 | 1031.4 | 11.2 | SW | 39 | 0.2 |
| 15.12.2024 | 11:55 | 3.9 | 94 | 3.0 | 1031.4 | 7.9 | S | 60 | 0.2 |
| 15.12.2024 | 12:00 | 4.0 | 94 | 3.1 | 1031.5 | 4.7 | SSW | 39 | 0.2 |
| 15.12.2024 | 12:05 | 4.1 | 94 | 3.2 | 1031.4 | 6.5 | SSW | 40 | 0.2 |
| 15.12.2024 | 12:10 | 4.1 | 93 | 3.1 | 1031.5 | 4.7 | S | 39 | 0.2 |
| 15.12.2024 | 12:15 | 4.1 | 93 | 3.1 | 1031.5 | 3.2 | SSW | 33 | 0.2 |
| 15.12.2024 | 12:20 | 4.1 | 93 | 3.1 | 1031.6 | 4.7 | SSW | 44 | 0.2 |
| 15.12.2024 | 12:25 | 4.2 | 93 | 3.2 | 1031.6 | 3.2 | SSW | 46 | 0.2 |
| 15.12.2024 | 12:30 | 4.2 | 93 | 3.2 | 1031.6 | 6.5 | SSW | 40 | 0.2 |
| 15.12.2024 | 12:36 | 4.2 | 94 | 3.3 | 1031.7 | 7.9 | SW | 42 | 0.2 |
| 15.12.2024 | 12:41 | 4.2 | 94 | 3.3 | 1031.5 | 9.7 | SSW | 33 | 0.2 |
| 15.12.2024 | 12:46 | 4.2 | 94 | 3.3 | 1031.6 | 6.5 | SW | 39 | 0.2 |
| 15.12.2024 | 12:51 | 4.3 | 94 | 3.4 | 1031.4 | 4.7 | SSW | 33 | 0.2 |
| 15.12.2024 | 12:56 | 4.3 | 94 | 3.4 | 1031.4 | 16.2 | SSW | 37 | 0.2 |
| 15.12.2024 | 13:01 | 4.3 | 94 | 3.4 | 1031.2 | 6.5 | SSW | 25 | 0.2 |
| 15.12.2024 | 13:06 | 4.3 | 94 | 3.4 | 1031.3 | 7.9 | S | 18 | 0.2 |
| 15.12.2024 | 13:11 | 4.2 | 94 | 3.3 | 1031.3 | 7.9 | S | 30 | 0.2 |
| 15.12.2024 | 13:16 | 4.2 | 94 | 3.3 | 1031.4 | 3.2 | SSW | 39 | 0.2 |
| 15.12.2024 | 13:21 | 4.3 | 94 | 3.4 | 1031.5 | 6.5 | S | 32 | 0.2 |
| 15.12.2024 | 13:26 | 4.3 | 94 | 3.4 | 1031.6 | 11.2 | SW | 18 | 0.2 |
| 15.12.2024 | 13:31 | 4.2 | 94 | 3.3 | 1031.5 | 4.7 | SSW | 19 | 0.2 |
| 15.12.2024 | 13:36 | 4.3 | 94 | 3.4 | 1031.5 | 13.0 | SSW | 28 | 0.2 |
| 15.12.2024 | 13:41 | 4.3 | 94 | 3.4 | 1031.5 | 6.5 | SSW | 32 | 0.2 |
| 15.12.2024 | 13:46 | 4.3 | 94 | 3.4 | 1031.5 | 4.7 | SW | 30 | 0.2 |
| 15.12.2024 | 13:51 | 4.3 | 94 | 3.4 | 1031.5 | 3.2 | SW | 40 | 0.2 |
| 15.12.2024 | 13:56 | 4.4 | 94 | 3.5 | 1031.6 | 4.7 | WSW | 49 | 0.2 |
| 15.12.2024 | 14:01 | 4.4 | 94 | 3.5 | 1031.4 | 6.5 | S | 42 | 0.2 |
| 15.12.2024 | 14:06 | 4.5 | 94 | 3.6 | 1031.3 | 7.9 | SSW | 49 | 0.2 |
| 15.12.2024 | 14:11 | 4.5 | 94 | 3.6 | 1031.4 | 11.2 | SSW | 32 | 0.2 |
| 15.12.2024 | 14:16 | 4.5 | 93 | 3.5 | 1031.4 | 6.5 | SSW | 26 | 0.2 |
| 15.12.2024 | 14:21 | 4.6 | 93 | 3.6 | 1031.5 | 3.2 | SSW | 30 | 0.2 |
| 15.12.2024 | 14:26 | 4.6 | 93 | 3.6 | 1031.6 | 7.9 | SW | 21 | 0.2 |
| 15.12.2024 | 14:31 | 4.6 | 93 | 3.6 | 1031.6 | 6.5 | SSW | 21 | 0.2 |
| 15.12.2024 | 14:36 | 4.6 | 94 | 3.7 | 1031.6 | 3.2 | SSW | 19 | 0.2 |
| 15.12.2024 | 14:41 | 4.6 | 94 | 3.7 | 1031.6 | 3.2 | SSW | 28 | 0.2 |
| 15.12.2024 | 14:46 | 4.6 | 94 | 3.7 | 1031.5 | 4.7 | SW | 25 | 0.2 |
| 15.12.2024 | 14:51 | 4.6 | 94 | 3.7 | 1031.7 | 3.2 | S | 16 | 0.2 |
| 15.12.2024 | 14:56 | 4.6 | 94 | 3.7 | 1031.8 | 7.9 | SSW | 21 | 0.2 |
| 15.12.2024 | 15:01 | 4.6 | 94 | 3.7 | 1031.7 | 9.7 | S | 33 | 0.2 |
| 15.12.2024 | 15:06 | 4.6 | 94 | 3.7 | 1031.8 | 7.9 | S | 25 | 0.2 |
| 15.12.2024 | 15:11 | 4.6 | 94 | 3.7 | 1031.8 | 6.5 | SSO | 26 | 0.2 |
| 15.12.2024 | 15:16 | 4.6 | 94 | 3.7 | 1031.9 | 3.2 | SSO | 32 | 0.2 |
| 15.12.2024 | 15:22 | 4.7 | 94 | 3.8 | 1031.7 | 4.7 | SSW | 19 | 0.2 |
| 15.12.2024 | 15:27 | 4.7 | 94 | 3.8 | 1031.7 | 9.7 | SSO | 19 | 0.2 |
| 15.12.2024 | 15:32 | 4.7 | 94 | 3.8 | 1031.6 | 6.5 | S | 28 | 0.2 |
| 15.12.2024 | 15:37 | 4.7 | 94 | 3.8 | 1031.4 | 7.9 | S | 25 | 0.2 |
| 15.12.2024 | 15:42 | 4.6 | 94 | 3.7 | 1031.3 | 6.5 | W | 21 | 0.2 |
| 15.12.2024 | 15:47 | 4.7 | 94 | 3.8 | 1031.4 | 6.5 | S | 21 | 0.2 |
| 15.12.2024 | 15:52 | 4.6 | 94 | 3.7 | 1031.7 | 6.5 | SSO | 14 | 0.2 |
| 15.12.2024 | 15:57 | 4.6 | 94 | 3.7 | 1031.8 | 4.7 | S | 11 | 0.2 |
| 15.12.2024 | 16:02 | 4.6 | 94 | 3.7 | 1032.0 | 3.2 | S | 9 | 0.2 |
| 15.12.2024 | 16:07 | 4.7 | 94 | 3.8 | 1032.0 | 4.7 | SSW | 7 | 0.2 |
| 15.12.2024 | 16:12 | 4.6 | 94 | 3.7 | 1032.0 | 6.5 | SSW | 5 | 0.2 |
| 15.12.2024 | 16:17 | 4.7 | 94 | 3.8 | 1032.2 | 7.9 | S | 5 | 0.2 |
| 15.12.2024 | 16:22 | 4.7 | 94 | 3.8 | 1032.2 | 4.7 | SSW | 5 | 0.2 |
| 15.12.2024 | 16:27 | 4.7 | 94 | 3.8 | 1032.4 | 6.5 | S | 0 | 0.2 |
| 15.12.2024 | 16:32 | 4.7 | 94 | 3.8 | 1032.4 | 6.5 | SO | 0 | 0.2 |
| 15.12.2024 | 16:37 | 4.7 | 94 | 3.8 | 1032.5 | 4.7 | SSW | 0 | 0.2 |
| 15.12.2024 | 16:42 | 4.7 | 94 | 3.8 | 1032.6 | 7.9 | SW | 0 | 0.2 |
| 15.12.2024 | 16:47 | 4.7 | 94 | 3.8 | 1032.5 | 4.7 | S | 0 | 0.4 |
| 15.12.2024 | 16:52 | 4.7 | 94 | 3.8 | 1032.5 | 3.2 | S | 0 | 0.4 |
| 15.12.2024 | 16:57 | 4.7 | 94 | 3.8 | 1032.5 | 3.2 | S | 0 | 0.4 |
| 15.12.2024 | 17:02 | 4.7 | 94 | 3.8 | 1032.5 | 3.2 | S | 0 | 0.4 |
| 15.12.2024 | 17:07 | 4.8 | 94 | 3.9 | 1032.3 | 9.7 | SSW | 0 | 0.4 |
| 15.12.2024 | 17:12 | 4.8 | 94 | 3.9 | 1032.4 | 6.5 | S | 0 | 0.4 |
| 15.12.2024 | 17:17 | 4.8 | 94 | 3.9 | 1032.5 | 3.2 | SSO | 0 | 0.4 |
| 15.12.2024 | 17:22 | 4.8 | 94 | 3.9 | 1032.4 | 7.9 | S | 0 | 0.4 |
| 15.12.2024 | 17:27 | 4.8 | 94 | 3.9 | 1032.4 | 4.7 | S | 0 | 0.4 |
| 15.12.2024 | 17:32 | 4.8 | 94 | 3.9 | 1032.3 | 11.2 | SSW | 0 | 0.4 |
| 15.12.2024 | 17:37 | 4.8 | 94 | 3.9 | 1032.4 | 9.7 | SSW | 0 | 0.4 |
| 15.12.2024 | 17:42 | 4.8 | 94 | 3.9 | 1032.3 | 11.2 | S | 0 | 0.4 |
| 15.12.2024 | 17:47 | 4.9 | 94 | 4.0 | 1032.4 | 4.7 | SSW | 0 | 0.4 |
| 15.12.2024 | 17:52 | 4.9 | 94 | 4.0 | 1032.4 | 6.5 | SSW | 0 | 0.4 |
| 15.12.2024 | 17:57 | 4.9 | 94 | 4.0 | 1032.5 | 3.2 | SW | 0 | 0.4 |
| 15.12.2024 | 18:03 | 4.9 | 94 | 4.0 | 1032.5 | 4.7 | SSW | 0 | 0.4 |
| 15.12.2024 | 18:08 | 4.9 | 94 | 4.0 | 1032.5 | 6.5 | S | 0 | 0.4 |
| 15.12.2024 | 18:13 | 5.0 | 94 | 4.1 | 1032.6 | 6.5 | S | 0 | 0.4 |
| 15.12.2024 | 18:18 | 5.0 | 94 | 4.1 | 1032.6 | 4.7 | SW | 0 | 0.4 |
| 15.12.2024 | 18:23 | 5.0 | 94 | 4.1 | 1032.7 | 4.7 | SO | 0 | 0.4 |
| 15.12.2024 | 18:28 | 5.1 | 94 | 4.2 | 1032.9 | 6.5 | SW | 0 | 0.4 |
| 15.12.2024 | 18:33 | 5.1 | 94 | 4.2 | 1032.8 | 6.5 | S | 0 | 0.4 |
| 15.12.2024 | 18:38 | 5.1 | 94 | 4.2 | 1032.8 | 11.2 | SSW | 0 | 0.4 |
| 15.12.2024 | 18:43 | 5.1 | 94 | 4.2 | 1032.9 | 7.9 | S | 0 | 0.4 |
| 15.12.2024 | 18:48 | 5.1 | 94 | 4.2 | 1032.9 | 9.7 | SSW | 0 | 0.4 |
| 15.12.2024 | 18:53 | 5.2 | 94 | 4.3 | 1032.8 | 7.9 | SSW | 0 | 0.4 |
| 15.12.2024 | 18:58 | 5.2 | 94 | 4.3 | 1033.0 | 3.2 | SSW | 0 | 0.4 |
| 15.12.2024 | 19:03 | 5.2 | 94 | 4.3 | 1032.9 | 7.9 | SSO | 0 | 0.4 |
| 15.12.2024 | 19:08 | 5.2 | 94 | 4.3 | 1032.8 | 6.5 | S | 0 | 0.4 |
| 15.12.2024 | 19:13 | 5.3 | 94 | 4.4 | 1032.9 | 6.5 | SSW | 0 | 0.4 |
| 15.12.2024 | 19:18 | 5.3 | 94 | 4.4 | 1033.0 | 4.7 | S | 0 | 0.4 |
| 15.12.2024 | 19:23 | 5.3 | 94 | 4.4 | 1033.1 | 6.5 | SSW | 0 | 0.4 |
| 15.12.2024 | 19:28 | 5.3 | 94 | 4.4 | 1033.1 | 6.5 | S | 0 | 0.4 |
| 15.12.2024 | 19:33 | 5.3 | 94 | 4.4 | 1033.2 | 3.2 | S | 0 | 0.4 |
| 15.12.2024 | 19:38 | 5.4 | 94 | 4.5 | 1033.2 | 6.5 | SSW | 0 | 0.4 |
| 15.12.2024 | 19:43 | 5.4 | 94 | 4.5 | 1033.2 | 4.7 | S | 0 | 0.4 |
| 15.12.2024 | 19:48 | 5.4 | 94 | 4.5 | 1033.4 | 7.9 | S | 0 | 0.4 |
| 15.12.2024 | 19:53 | 5.4 | 94 | 4.5 | 1033.4 | 4.7 | S | 0 | 0.4 |
| 15.12.2024 | 19:58 | 5.4 | 94 | 4.5 | 1033.4 | 4.7 | SW | 0 | 0.4 |
| 15.12.2024 | 20:03 | 5.4 | 94 | 4.5 | 1033.4 | 6.5 | S | 0 | 0.4 |
| 15.12.2024 | 20:08 | 5.5 | 94 | 4.6 | 1033.5 | 4.7 | SSW | 0 | 0.4 |
| 15.12.2024 | 20:13 | 5.6 | 94 | 4.7 | 1033.6 | 3.2 | SSW | 0 | 0.4 |
| 15.12.2024 | 20:18 | 5.6 | 94 | 4.7 | 1033.5 | 9.7 | S | 0 | 0.4 |
| 15.12.2024 | 20:23 | 5.6 | 94 | 4.7 | 1033.5 | 7.9 | SSW | 0 | 0.4 |
| 15.12.2024 | 20:28 | 5.6 | 94 | 4.7 | 1033.4 | 6.5 | SSW | 0 | 0.4 |
| 15.12.2024 | 20:33 | 5.7 | 94 | 4.8 | 1033.5 | 1.4 | SSW | 0 | 0.4 |
| 15.12.2024 | 20:38 | 5.7 | 94 | 4.8 | 1033.4 | 4.7 | S | 0 | 0.4 |
| 15.12.2024 | 20:43 | 5.7 | 94 | 4.8 | 1033.5 | 6.5 | S | 0 | 0.4 |
| 15.12.2024 | 20:49 | 5.7 | 94 | 4.8 | 1033.6 | 9.7 | SSO | 0 | 0.4 |
| 15.12.2024 | 20:54 | 5.7 | 94 | 4.8 | 1033.6 | 11.2 | S | 0 | 0.4 |
| 15.12.2024 | 20:59 | 5.7 | 94 | 4.8 | 1033.7 | 4.7 | SW | 0 | 0.4 |
| 15.12.2024 | 21:04 | 5.7 | 94 | 4.8 | 1033.6 | 6.5 | SSW | 0 | 0.4 |
| 15.12.2024 | 21:09 | 5.7 | 94 | 4.8 | 1033.5 | 7.9 | S | 0 | 0.4 |
| 15.12.2024 | 21:14 | 5.8 | 94 | 4.9 | 1033.5 | 11.2 | SSW | 0 | 0.6 |
| 15.12.2024 | 21:19 | 5.8 | 94 | 4.9 | 1033.5 | 11.2 | SSW | 0 | 0.6 |
| 15.12.2024 | 21:24 | 5.8 | 94 | 4.9 | 1033.6 | 9.7 | SW | 0 | 0.6 |
| 15.12.2024 | 21:29 | 5.8 | 94 | 4.9 | 1033.7 | 9.7 | SSO | 0 | 0.6 |
| 15.12.2024 | 21:34 | 5.8 | 94 | 4.9 | 1033.8 | 6.5 | SSW | 0 | 0.6 |
| 15.12.2024 | 21:39 | 5.9 | 94 | 5.0 | 1033.9 | 13.0 | SSW | 0 | 0.6 |
| 15.12.2024 | 21:44 | 5.9 | 94 | 5.0 | 1033.9 | 16.2 | SW | 0 | 0.6 |
| 15.12.2024 | 21:49 | 5.9 | 94 | 5.0 | 1033.9 | 6.5 | S | 0 | 0.6 |
| 15.12.2024 | 21:54 | 5.9 | 94 | 5.0 | 1033.9 | 4.7 | SSW | 0 | 0.6 |
| 15.12.2024 | 21:59 | 5.9 | 94 | 5.0 | 1033.8 | 6.5 | S | 0 | 0.6 |
| 15.12.2024 | 22:04 | 5.9 | 94 | 5.0 | 1033.9 | 7.9 | S | 0 | 0.6 |
| 15.12.2024 | 22:09 | 6.0 | 94 | 5.1 | 1033.8 | 9.7 | SSW | 0 | 0.6 |
| 15.12.2024 | 22:14 | 6.0 | 94 | 5.1 | 1033.7 | 6.5 | O | 0 | 0.6 |
| 15.12.2024 | 22:19 | 6.0 | 94 | 5.1 | 1033.7 | 9.7 | SSW | 0 | 0.6 |
| 15.12.2024 | 22:24 | 6.0 | 94 | 5.1 | 1033.8 | 11.2 | SSW | 0 | 0.6 |
| 15.12.2024 | 22:29 | 6.1 | 94 | 5.2 | 1033.7 | 6.5 | SW | 0 | 0.6 |
| 15.12.2024 | 22:34 | 6.1 | 94 | 5.2 | 1033.8 | 11.2 | S | 0 | 0.6 |
| 15.12.2024 | 22:39 | 6.1 | 94 | 5.2 | 1033.8 | 4.7 | S | 0 | 0.6 |
| 15.12.2024 | 22:44 | 6.1 | 94 | 5.2 | 1033.9 | 9.7 | SW | 0 | 0.6 |
| 15.12.2024 | 22:49 | 6.1 | 94 | 5.2 | 1033.9 | 6.5 | S | 0 | 0.6 |
| 15.12.2024 | 22:54 | 6.1 | 94 | 5.2 | 1033.8 | 7.9 | SSW | 0 | 0.6 |
| 15.12.2024 | 22:59 | 6.2 | 94 | 5.3 | 1033.7 | 6.5 | S | 0 | 0.6 |
| 15.12.2024 | 23:04 | 6.2 | 94 | 5.3 | 1033.8 | 7.9 | SSW | 0 | 0.6 |
| 15.12.2024 | 23:09 | 6.2 | 94 | 5.3 | 1033.9 | 4.7 | S | 0 | 0.6 |
| 15.12.2024 | 23:14 | 6.2 | 94 | 5.3 | 1033.9 | 4.7 | SW | 0 | 0.6 |
| 15.12.2024 | 23:19 | 6.2 | 94 | 5.3 | 1033.9 | 3.2 | SSW | 0 | 0.6 |
| 15.12.2024 | 23:24 | 6.2 | 94 | 5.3 | 1034.1 | 7.9 | SSW | 0 | 0.6 |
| 15.12.2024 | 23:29 | 6.2 | 94 | 5.3 | 1034.2 | 4.7 | S | 0 | 0.6 |
| 15.12.2024 | 23:34 | 6.3 | 94 | 5.4 | 1034.1 | 7.9 | SSO | 0 | 0.6 |
| 15.12.2024 | 23:39 | 6.3 | 94 | 5.4 | 1034.1 | 13.0 | SSW | 0 | 0.6 |
| 15.12.2024 | 23:44 | 6.3 | 94 | 5.4 | 1034.2 | 3.2 | SSW | 0 | 0.6 |
| 15.12.2024 | 23:50 | 6.3 | 94 | 5.4 | 1034.1 | 14.4 | SSW | 0 | 0.6 |
| 15.12.2024 | 23:55 | 6.3 | 94 | 5.4 | 1034.1 | 7.9 | S | 0 | 0.6 |